Location: Ch?enovice
(49.7164°N, 15.2160°E)
Time: 17:35:45
(UTC+00:00)

Resurs 1-4 Rocket - Pass Details

Date: 23 May 2024
Orbit: 798 x 814 km, 98.7° (Epoch: 13 June)

Event Time Altitude Azimuth Distance (km) Brightness Sun altitude
Rises 00:24:46 0° 20° (NNE) 3,318 7.1 -16.9°
Reaches altitude 10° 00:27:16 10° 28° (NNE) 2,383 5.9 -16.8°
Maximum altitude 00:32:12 40° 98° (E) 1,165 3.0 -16.5°
Enters shadow 00:36:00 16° 161° (SSE) 1,981 3.7 -16.2°
